Regional Weather Roundup
Issued by NWS Portland, ME

Current Version | Previous Version | Text Only | Print | Product List | Glossary On
Versions: 1 2 3 4 5 6 7 8 9 10 11 12 13 14 15 16 17 18 19 20 21 22 23 24 25 26 27 28 29 30 31 32 33 34 35 36 37 38 39 40 41 42 43 44 45 46 47 48 49 50
000
ASUS41 KGYX 200010
RWRGYX
WEATHER ROUNDUP FOR MAINE AND NEW HAMPSHIRE
NATIONAL WEATHER SERVICE GRAY ME
800 PM EDT THU OCT 19 2017

MEZ002-005-006-010-012-015-018-020-021-024-026-027-029-200100-
MAINE

CITY           SKY/WX    TMP DP  RH WIND       PRES   REMARKS
PORTLAND       MOCLDY    62  47  57 SW8       29.92S
6HR MIN TEMP:  60; 6HR MAX TEMP:  67;

SANFORD        CLOUDY    63  44  50 SW8G16    29.94S
BAR HARBOR     PTCLDY    58  54  86 S17G24    29.91F
WISCASSET      MOCLDY    63  51  65 SW9G17    29.93S
6HR MIN TEMP:  62; 6HR MAX TEMP:  68;

ROCKLAND       PTCLDY    59  54  83 SW13G21   29.92S
FRYEBURG       CLOUDY    63  43  48 SW8       29.90R
6HR MIN TEMP:  63; 6HR MAX TEMP:  72;

LEWISTONAUBURN CLOUDY    61  45  55 S8        29.89S
AUGUSTA        CLOUDY    60  48  64 VRB7      29.89S
6HR MIN TEMP:  60; 6HR MAX TEMP:  69;

WATERVILLE     PTCLDY    59  49  69 S6        29.85S
BANGOR         MOCLDY    58  51  78 S7        29.88R
6HR MIN TEMP:  58; 6HR MAX TEMP:  69;

GREENVILLE       N/A     56  47  71 CALM      29.83S
6HR MIN TEMP:  56; 6HR MAX TEMP:  66;

MILLINOCKET    CLOUDY    58  51  78 VRB6      29.83F
6HR MIN TEMP:  58; 6HR MAX TEMP:  71;

HOULTON        CLOUDY    60  49  66 S15G25    29.80F
6HR MIN TEMP:  60; 6HR MAX TEMP:  71;

PRESQUE ISLE   CLOUDY    62  47  57 S15G22    29.77R
6HR MIN TEMP:  62; 6HR MAX TEMP:  69;

FRENCHVILLE    CLOUDY    60  42  51 SW7       29.73S
6HR MIN TEMP:  59; 6HR MAX TEMP:  68; 6HR PCP: TRACE;

CARIBOU        CLOUDY    62  46  55 SW13G22   29.75R
6HR MIN TEMP:  62; 6HR MAX TEMP:  70;

$$

NHZ002-005-008-009-011-012-014-200100-
NEW HAMPSHIRE

CITY           SKY/WX    TMP DP  RH WIND       PRES   REMARKS
PORTSMOUTH     MOCLDY    64  44  48 SW10      29.93F
ROCHESTER      PTCLDY    61  40  45 VRB5      29.94S
6HR MIN TEMP:  61; 6HR MAX TEMP:  74;

NASHUA         CLOUDY    63  43  48 VRB5      29.98S
MANCHESTER     PTCLDY    64  42  44 S9        29.95F
6HR MIN TEMP:  64; 6HR MAX TEMP:  75;

CONCORD        CLEAR     59  42  53 S6        29.95R
6HR MIN TEMP:  59; 6HR MAX TEMP:  76;

LACONIA        CLEAR     64  40  41 SW17G23   29.92R
PLYMOUTH       FAIR      55  43  65 CALM      29.93R
BERLIN         CLEAR     64  37  36 SW6       29.89R
6HR MIN TEMP:  61; 6HR MAX TEMP:  75;

WHITEFIELD     CLEAR     65  37  35 SW7       29.91R
6HR MIN TEMP:  65; 6HR MAX TEMP:  73;

JAFFREY        CLEAR     60  45  57 S9        30.00S
6HR MIN TEMP:  60; 6HR MAX TEMP:  70;

KEENE          CLEAR     58  40  51 S5        29.98R
LEBANON        CLEAR     61  42  49 S10       29.94R
6HR MIN TEMP:  57; 6HR MAX TEMP:  75;

MT WASHINGTON  PTCLDY    41  32  70 W64G71      N/A
6HR MIN TEMP:  40; 6HR MAX TEMP:  47;

$$

VTZ005-007-008-200100-
VERMONT

CITY           SKY/WX    TMP DP  RH WIND       PRES   REMARKS
ST JOHNSBURY     N/A     64  38  38 MISG      29.90R
MONTPELIER     CLOUDY    64  40  41 VRB6      29.96R
BURLINGTON     CLOUDY    65  44  46 S7        29.91R
$$

MAZ007-012-024-CTZ003-RIZ002-NYZ038-NYZ072-200100-
SOUTHERN NEW ENGLAND AND NY

CITY           SKY/WX    TMP DP  RH WIND       PRES   REMARKS
BOSTON         PTCLDY    61  49  64 SW16G26   30.00S
WORCESTER      PTCLDY    57  42  57 SW20      30.01F
NANTUCKET      CLEAR     60  59  96 S15       30.10F
PROVIDENCE     PTCLDY    59  54  83 SW8       30.06F
HARTFORD       PTCLDY    61  48  62 S13       30.03S
ALBANY         PTCLDY    63  45  51 S7        29.99R
NEW YORK CITY  PTCLDY    68  44  42 SW13      30.08S
$$

ANZ081-ANZ082-ANZ150-NHZ014-MEZ023>029-200100-
COASTAL MARINE OBSERVATIONS

STATION/POSITION TIME  TEMP    WIND        PRES    WAVE
                       AIR SEA DIR/SP/G            HT/PER
                 (UTC) (F)     (DEG/KT/KT) (MB)    (FT/S)
MOUNT DESERT ROC 0000   58     190/ 30/ 35 1013.3F
MATINICUS ROCK   2300   57     200/ 27/ 30 1013.5F
ISLE OF SHOALS   2300   63     200/ 23/ 24 1014.3R
JEFFREYS LEDGE   2336      58                N/A     5/ 6
CASHES LEDGE BUO 2250   59 56              1015.0    6/ 6
GEORGES BANK BUO 2250   61 59              1021.1    3/ 8
$$

.............KEY..............
   WCI - WIND CHILL
   TC  - TEMPERATURE IN CELSIUS
   VSB - VISIBILITY IN MILES
   HX  - HEAT INDEX
   FAIR- INDICATES FEW OR NO CLOUDS BELOW 12,000 FT, WITH NO
         SIGNIFICANT WEATHER AND/OR OBSTRUCTIONS TO VISIBILITY.






USA.gov is the U.S. government's official web portal to all federal, state and local government web resources and services.